When you browse on this site, cookies collect data to enhance your experience and personalize the content and advertising you see.
Visit our Privacy Policy to learn more. By continuing to use the site, you agree to this use of cookies and data.
  • In Latvia
  • List of Countries
  • For 7 days
  • Water Temperature
  • Satellite Maps
  • Weather Map
  • Weather Widgets
  • user-avatar
    Login

    Hourly Weather Lyubegoschi

    Today, 23 May, Thursday

    Time Temperature Precipitation Wind Pressure Humidity
    00:00 +9°C° 0 mm 0 mps 743 mmHg 96%
    01:00 +9°C° 0 mm 0 mps 743 mmHg 96%
    02:00 +9°C° 0 mm 0 mps 742 mmHg 96%
    03:00 +10°C° 0 mm 0 mps 742 mmHg 94%
    04:00 +10°C° 0 mm 0 mps 742 mmHg 93%
    05:00 +11°C° 0 mm 0 mps 742 mmHg 91%
    06:00 +14°C° 0 mm 1 mps 742 mmHg 84%
    07:00 +15°C° 0 mm 1 mps 742 mmHg 77%
    08:00 +17°C° 0 mm 2 mps 742 mmHg 70%
    09:00 +16°C° 0 mm 2 mps 742 mmHg 73%
    10:00 +16°C° 0 mm 2 mps 742 mmHg 75%
    11:00 +16°C° 0 mm 3 mps 742 mmHg 78%
    12:00 +13°C° 0 mm 3 mps 742 mmHg 80%
    13:00 +12°C° 0 mm 4 mps 743 mmHg 81%
    14:00 +11°C° 0 mm 4 mps 743 mmHg 83%
    15:00 +10°C° 0 mm 4 mps 743 mmHg 80%
    16:00 +10°C° 0 mm 4 mps 744 mmHg 78%
    17:00 +10°C° 0 mm 4 mps 744 mmHg 75%
    18:00 +9°C° 0 mm 3 mps 744 mmHg 78%
    19:00 +8°C° 0 mm 2 mps 745 mmHg 81%
    20:00 +9°C° 0 mm 1 mps 745 mmHg 83%
    21:00 +7°C° 0 mm 2 mps 746 mmHg 84%
    22:00 +6°C° 0 mm 2 mps 746 mmHg 84%
    23:00 +5°C° 0 mm 2 mps 746 mmHg 85%

    Tomorrow, 24 May, Friday

    Time Temperature Precipitation Wind Pressure Humidity
    00:00 +4°C° 0 mm 2 mps 747 mmHg 82%
    01:00 +4°C° 0 mm 2 mps 747 mmHg 78%
    02:00 +3°C° 0 mm 2 mps 748 mmHg 75%
    03:00 +4°C° 0 mm 2 mps 748 mmHg 70%
    04:00 +4°C° 0 mm 2 mps 748 mmHg 65%
    05:00 +4°C° 0 mm 3 mps 749 mmHg 61%
    06:00 +7°C° 0 mm 3 mps 749 mmHg 54%
    07:00 +8°C° 0 mm 3 mps 749 mmHg 48%
    08:00 +10°C° 0 mm 3 mps 749 mmHg 42%
    09:00 +11°C° 0 mm 3 mps 749 mmHg 40%
    10:00 +12°C° 0 mm 3 mps 749 mmHg 37%
    11:00 +13°C° 0 mm 3 mps 749 mmHg 34%
    12:00 +13°C° 0 mm 3 mps 749 mmHg 34%
    13:00 +14°C° 0 mm 3 mps 749 mmHg 33%
    14:00 +14°C° 0 mm 3 mps 748 mmHg 32%
    15:00 +14°C° 0 mm 3 mps 748 mmHg 34%
    16:00 +14°C° 0 mm 3 mps 748 mmHg 35%
    17:00 +14°C° 0 mm 3 mps 748 mmHg 36%
    18:00 +13°C° 0 mm 2 mps 748 mmHg 43%
    19:00 +10°C° 0 mm 2 mps 748 mmHg 49%
    20:00 +8°C° 0 mm 2 mps 748 mmHg 56%
    21:00 +7°C° 0 mm 2 mps 748 mmHg 58%
    22:00 +7°C° 0 mm 2 mps 748 mmHg 60%
    23:00 +6°C° 0 mm 2 mps 748 mmHg 62%

    Day after tomorrow, 25 May, Saturday

    Time Temperature Precipitation Wind Pressure Humidity
    00:00 +7°C° 0 mm 3 mps 747 mmHg 64%
    01:00 +7°C° 0 mm 3 mps 747 mmHg 67%
    02:00 +7°C° 0 mm 3 mps 747 mmHg 69%
    03:00 +8°C° 0 mm 3 mps 747 mmHg 68%
    04:00 +8°C° 0 mm 3 mps 746 mmHg 68%
    05:00 +9°C° 0 mm 3 mps 746 mmHg 67%
    06:00 +10°C° 0 mm 4 mps 746 mmHg 68%
    07:00 +11°C° 0 mm 4 mps 746 mmHg 68%
    08:00 +12°C° 0 mm 4 mps 745 mmHg 68%
    09:00 +12°C° 0.1 mm 4 mps 745 mmHg 72%
    10:00 +12°C° 0.1 mm 4 mps 744 mmHg 77%
    11:00 +12°C° 0.1 mm 4 mps 744 mmHg 81%
    12:00 +12°C° 0.3 mm 4 mps 743 mmHg 82%
    13:00 +13°C° 0.3 mm 4 mps 743 mmHg 82%
    14:00 +13°C° 0.3 mm 4 mps 742 mmHg 83%
    15:00 +13°C° 0.3 mm 3 mps 742 mmHg 85%
    16:00 +13°C° 0.3 mm 3 mps 741 mmHg 88%
    17:00 +13°C° 0.3 mm 3 mps 740 mmHg 90%
    18:00 +13°C° 0.1 mm 3 mps 740 mmHg 91%
    19:00 +13°C° 0.1 mm 3 mps 739 mmHg 93%
    20:00 +14°C° 0.1 mm 3 mps 739 mmHg 94%
    21:00 +14°C° 0.5 mm 3 mps 738 mmHg 95%
    22:00 +14°C° 0.5 mm 4 mps 738 mmHg 96%
    23:00 +14°C° 0.5 mm 4 mps 737 mmHg 96%

    26 May, Sunday

    Time Temperature Precipitation Wind Pressure Humidity
    00:00 +14°C° 0.7 mm 4 mps 737 mmHg 97%
    01:00 +14°C° 0.7 mm 3 mps 737 mmHg 97%
    02:00 +13°C° 0.7 mm 3 mps 737 mmHg 97%
    03:00 +13°C° 0 mm 3 mps 737 mmHg 96%
    04:00 +12°C° 0 mm 3 mps 737 mmHg 95%
    05:00 +12°C° 0 mm 3 mps 737 mmHg 94%
    06:00 +12°C° 0 mm 3 mps 737 mmHg 87%
    07:00 +13°C° 0 mm 3 mps 737 mmHg 80%
    08:00 +14°C° 0 mm 3 mps 738 mmHg 72%
    09:00 +16°C° 0 mm 3 mps 738 mmHg 64%
    10:00 +17°C° 0 mm 4 mps 738 mmHg 56%
    11:00 +19°C° 0 mm 4 mps 738 mmHg 48%
    12:00 +19°C° 0 mm 4 mps 738 mmHg 47%
    13:00 +19°C° 0 mm 4 mps 738 mmHg 47%
    14:00 +20°C° 0 mm 4 mps 738 mmHg 46%
    15:00 +19°C° 0 mm 4 mps 738 mmHg 50%
    16:00 +18°C° 0 mm 3 mps 738 mmHg 55%
    17:00 +17°C° 0 mm 3 mps 738 mmHg 59%
    18:00 +14°C° 0 mm 3 mps 738 mmHg 67%
    19:00 +13°C° 0 mm 2 mps 738 mmHg 74%
    20:00 +11°C° 0 mm 1 mps 738 mmHg 82%
    21:00 +10°C° 0 mm 1 mps 738 mmHg 85%
    22:00 +8°C° 0 mm 0 mps 738 mmHg 88%
    23:00 +8°C° 0 mm 0 mps 738 mmHg 92%

    27 May, Monday

    Time Temperature Precipitation Wind Pressure Humidity
    00:00 +7°C° 0 mm 0 mps 738 mmHg 92%
    01:00 +8°C° 0 mm 1 mps 738 mmHg 93%
    02:00 +8°C° 0 mm 1 mps 737 mmHg 94%
    03:00 +9°C° 0 mm 1 mps 737 mmHg 90%
    04:00 +10°C° 0 mm 1 mps 737 mmHg 87%
    05:00 +10°C° 0 mm 2 mps 737 mmHg 83%
    06:00 +11°C° 0.1 mm 1 mps 737 mmHg 82%
    07:00 +12°C° 0.1 mm 1 mps 737 mmHg 80%
    08:00 +13°C° 0.1 mm 1 mps 736 mmHg 78%
    09:00 +13°C° 0.6 mm 1 mps 737 mmHg 81%
    10:00 +13°C° 0.6 mm 1 mps 737 mmHg 83%
    11:00 +12°C° 0.6 mm 0 mps 737 mmHg 86%
    12:00 +13°C° 0.5 mm 1 mps 738 mmHg 85%
    13:00 +14°C° 0.5 mm 1 mps 738 mmHg 83%
    14:00 +14°C° 0.5 mm 1 mps 738 mmHg 82%
    15:00 +14°C° 0.2 mm 1 mps 739 mmHg 82%
    16:00 +14°C° 0.2 mm 2 mps 739 mmHg 82%
    17:00 +14°C° 0.2 mm 2 mps 740 mmHg 82%
    18:00 +14°C° 0.1 mm 2 mps 740 mmHg 86%
    19:00 +13°C° 0.1 mm 2 mps 741 mmHg 89%
    20:00 +12°C° 0.1 mm 2 mps 741 mmHg 93%
    21:00 +10°C° 0 mm 2 mps 742 mmHg 94%
    22:00 +10°C° 0 mm 3 mps 742 mmHg 94%
    23:00 +9°C° 0 mm 3 mps 743 mmHg 95%

    28 May, Tuesday

    Time Temperature Precipitation Wind Pressure Humidity
    00:00 +9°C° 0 mm 3 mps 743 mmHg 95%
    01:00 +8°C° 0 mm 2 mps 744 mmHg 96%
    02:00 +7°C° 0 mm 2 mps 744 mmHg 96%
    03:00 +8°C° 0 mm 2 mps 745 mmHg 94%
    04:00 +9°C° 0 mm 2 mps 745 mmHg 92%
    05:00 +9°C° 0 mm 2 mps 745 mmHg 90%
    06:00 +12°C° 0 mm 2 mps 746 mmHg 84%
    07:00 +14°C° 0 mm 2 mps 746 mmHg 78%
    08:00 +16°C° 0 mm 2 mps 746 mmHg 71%
    09:00 +17°C° 0.1 mm 3 mps 746 mmHg 67%
    10:00 +18°C° 0.1 mm 3 mps 746 mmHg 63%
    11:00 +19°C° 0.1 mm 3 mps 747 mmHg 58%
    12:00 +19°C° 0.4 mm 3 mps 747 mmHg 60%
    13:00 +19°C° 0.4 mm 3 mps 747 mmHg 63%
    14:00 +19°C° 0.4 mm 4 mps 747 mmHg 65%
    15:00 +19°C° 0.2 mm 4 mps 747 mmHg 66%
    16:00 +19°C° 0.2 mm 3 mps 747 mmHg 68%
    17:00 +18°C° 0.2 mm 3 mps 747 mmHg 69%
    18:00 +17°C° 0.1 mm 3 mps 747 mmHg 75%
    19:00 +15°C° 0.1 mm 2 mps 747 mmHg 81%
    20:00 +14°C° 0.1 mm 2 mps 748 mmHg 87%
    21:00 +13°C° 0 mm 2 mps 748 mmHg 89%
    22:00 +12°C° 0 mm 1 mps 748 mmHg 90%
    23:00 +11°C° 0 mm 1 mps 748 mmHg 92%
    Show more